GW3733 Weather Reports


time (UTC)temp
F
wind
direction
speed
knots
gust
knots
rain 1hr
in
rain 24hr
in
rain mn
in
humidity
%
barometer
mb
20260505192331 83 206 2.6 3.5 0.00 0.00 0.00 30 1004.0
20260505191828 83 320 0.9 1.7 0.00 0.00 0.00 34 1004.1
20260505191327 82 309 1.7 2.6 0.00 0.00 0.00 33 1004.0
20260505190823 82 311 1.7 2.6 0.00 0.00 0.00 34 1004.1
20260505190318 81 49 2.6 5.2 0.00 0.00 0.00 33 1004.8
20260505185814 82 250 0.9 1.7 0.00 0.00 0.00 33 1004.4
20260505185311 80 322 1.7 1.7 0.00 0.00 0.00 35 1004.7
20260505184807 82 32 1.7 2.6 0.00 0.00 0.00 33 1004.7
20260505184304 82 358 0.0 0.0 0.00 0.00 0.00 33 1004.9
20260505183801 82 310 0.9 0.9 0.00 0.00 0.00 35 1004.9
20260505183258 83 291 2.6 2.6 0.00 0.00 0.00 37 1004.7
20260505182755 82 11 0.9 1.7 0.00 0.00 0.00 30 1004.9
20260505182251 83 59 0.9 0.9 0.00 0.00 0.00 31 1005.0
20260505181748 84 278 0.0 0.9 0.00 0.00 0.00 31 1005.0
20260505181246 83 53 0.0 0.9 0.00 0.00 0.00 36 1005.0
20260505180742 82 354 1.7 2.6 0.00 0.00 0.00 35 1005.1
20260505180239 83 265 3.5 3.5 0.00 0.00 0.00 30 1005.5
20260505175735 82 248 0.9 0.9 0.00 0.00 0.00 32 1005.5
20260505175232 82 213 1.7 1.7 0.00 0.00 0.00 33 1005.4
20260505174728 82 332 2.6 3.5 0.00 0.00 0.00 31 1005.3
20260505174225 82 298 2.6 3.5 0.00 0.00 0.00 32 1005.5
20260505173721 81 345 2.6 2.6 0.00 0.00 0.00 32 1005.5
20260505173218 81 139 2.6 3.5 0.00 0.00 0.00 32 1005.5
20260505172715 81 345 3.5 7.0 0.00 0.00 0.00 33 1005.5
20260505172212 81 56 1.7 2.6 0.00 0.00 0.00 35 1005.8
20260505171712 81 93 3.5 3.5 0.00 0.00 0.00 33 1005.6
20260505171209 81 315 2.6 2.6 0.00 0.00 0.00 38 1005.9
20260505170706 80 53 1.7 2.6 0.00 0.00 0.00 34 1006.2
20260505170203 80 339 0.9 1.7 0.00 0.00 0.00 34 1006.0
20260505165703 79 319 3.5 3.5 0.00 0.00 0.00 35 1006.2
20260505165159 80 318 2.6 3.5 0.00 0.00 0.00 36 1006.1
20260505164655 79 31 2.6 3.5 0.00 0.00 0.00 35 1006.2
20260505164153 79 286 2.6 2.6 0.00 0.00 0.00 41 1006.5
20260505163651 78 130 0.9 0.9 0.00 0.00 0.00 36 1006.4
20260505163149 79 342 2.6 3.5 0.00 0.00 0.00 37 1006.6
20260505162646 78 42 0.0 0.9 0.00 0.00 0.00 36 1006.5
20260505162143 79 316 1.7 1.7 0.00 0.00 0.00 36 1006.7
20260505161640 80 2 3.5 5.2 0.00 0.00 0.00 35 1006.7
20260505161137 79 290 1.7 1.7 0.00 0.00 0.00 35 1006.6
20260505160635 79 351 1.7 3.5 0.00 0.00 0.00 38 1006.6
20260505160132 80 333 2.6 3.5 0.00 0.00 0.00 36 1006.8
20260505153112 78 332 1.7 2.6 0.00 0.00 0.00 38 1007.0
20260505152608 78 243 2.6 2.6 0.00 0.00 0.00 40 1006.9
20260505152104 77 317 0.9 1.7 0.00 0.00 0.00 40 1007.0
20260505151559 77 162 4.3 6.1 0.00 0.00 0.00 40 1006.7
20260505151057 77 236 7.8 9.6 0.00 0.00 0.00 38 1007.1
20260505150553 77 302 1.7 2.6 0.00 0.00 0.00 39 1006.9
20260505140519 75 307 1.7 5.2 0.00 0.00 0.00 44 1006.7
20260505124932 70 349 1.7 2.6 0.00 0.00 0.00 54 1007.1
20260505124429 70 149 0.0 0.9 0.00 0.00 0.00 53 1007.3
20260505123925 69 344 0.0 0.0 0.00 0.00 0.00 57 1007.1
20260505123421 68 22 0.0 0.0 0.00 0.00 0.00 58 1007.3
20260505122917 67 40 0.9 1.7 0.00 0.00 0.00 61 1007.4
20260505122415 66 81 0.9 1.7 0.00 0.00 0.00 68 1007.2
20260505121911 66 39 1.7 2.6 0.00 0.00 0.00 64 1007.5
20260505121409 64 118 1.7 2.6 0.00 0.00 0.00 69 1007.4
20260505120904 63 10 0.9 0.9 0.00 0.00 0.00 75 1007.5
20260505120401 61 7 0.9 1.7 0.00 0.00 0.00 72 1007.5
20260505115859 60 0 0.9 0.9 0.00 0.00 0.00 74 1007.4
20260505115357 59 77 0.0 0.9 0.00 0.00 0.00 77 1007.5
20260505114855 57 28 0.0 0.0 0.00 0.00 0.00 81 1007.8
20260505114351 55 15 0.0 0.0 0.00 0.00 0.00 87 1007.8
20260505113847 53 2 0.0 0.0 0.00 0.00 0.00 91 1007.6
20260505113344 52 353 0.0 0.0 0.00 0.00 0.00 94 1007.3
20260505112839 51 355 0.0 0.0 0.00 0.00 0.00 95 1007.5
20260505112337 51 355 0.0 0.0 0.00 0.00 0.00 96 1007.6
20260505111833 51 355 0.0 0.0 0.00 0.00 0.00 96 1007.3
20260505111328 50 355 0.0 0.0 0.00 0.00 0.00 96 1007.3
20260505110825 50 355 0.0 0.0 0.00 0.00 0.00 97 1007.2
20260505110322 50 355 0.0 0.0 0.00 0.00 0.00 97 1007.1
20260505101756 50 354 0.0 0.9 0.00 0.00 0.00 96 1006.5
20260505101252 50 354 0.0 0.9 0.00 0.00 0.00 96 1006.6
20260505100749 50 354 0.0 0.0 0.00 0.00 0.00 96 1006.6
20260505100245 50 354 0.0 0.0 0.00 0.00 0.00 96 1006.4
20260505095741 50 354 0.0 0.0 0.00 0.00 0.00 96 1006.4
20260505095239 50 354 0.0 0.0 0.00 0.00 0.00 96 1006.6
20260505094734 49 354 0.0 0.0 0.00 0.00 0.00 96 1006.5
20260505094231 49 354 0.0 0.0 0.00 0.00 0.00 96 1006.2
20260505093727 49 354 0.0 0.0 0.00 0.00 0.00 97 1006.2
20260505093225 49 354 0.0 0.0 0.00 0.00 0.00 97 1006.5
20260505092721 49 354 0.0 0.0 0.00 0.00 0.00 97 1006.3
20260505092220 49 354 0.0 0.0 0.00 0.00 0.00 96 1006.6
20260505091717 49 355 0.0 0.0 0.00 0.00 0.00 96 1006.4
20260505091215 49 355 0.0 0.0 0.00 0.00 0.00 96 1006.4
20260505090712 49 355 0.0 0.0 0.00 0.00 0.00 96 1006.4
20260505090211 49 355 0.0 0.0 0.00 0.00 0.00 96 1006.1
20260505085708 49 355 0.0 0.0 0.00 0.00 0.00 96 1006.2
20260505085206 49 355 0.0 0.0 0.00 0.00 0.00 95 1006.3
20260505084703 50 357 0.0 0.0 0.00 0.00 0.00 94 1006.1
20260505084202 50 359 0.0 0.0 0.00 0.00 0.00 92 1006.2
20260505083658 51 359 0.0 0.0 0.00 0.00 0.00 91 1006.2
20260505083155 51 16 0.0 0.0 0.00 0.00 0.00 90 1006.1
20260505082651 51 12 0.0 0.0 0.00 0.00 0.00 91 1006.1
20260505082148 50 8 0.0 0.0 0.00 0.00 0.00 94 1006.2
20260505081644 50 359 0.0 0.0 0.00 0.00 0.00 95 1006.1
20260505081142 50 7 0.0 0.0 0.00 0.00 0.00 95 1006.0
20260505080638 49 14 0.0 0.0 0.00 0.00 0.00 96 1005.9
20260505080134 48 354 0.0 0.9 0.00 0.00 0.00 98 1006.1
20260505075631 48 352 0.0 0.0 0.00 0.00 0.00 99 1006.1
20260505075127 48 351 0.0 0.0 0.00 0.00 0.00 99 1005.9
20260505074624 47 352 0.0 0.0 0.00 0.00 0.00 99 1006.0
20260505074121 47 352 0.0 0.0 0.00 0.00 0.00 99 1005.9
20260505073619 47 352 0.0 0.0 0.00 0.00 0.00 99 1005.7
20260505073117 46 352 0.0 0.0 0.00 0.00 0.00 99 1005.7
20260505072612 46 352 0.0 0.0 0.00 0.00 0.00 99 1005.9
20260505072109 46 352 0.0 0.0 0.00 0.00 0.00 99 1005.7
20260505071604 46 352 0.0 0.0 0.00 0.00 0.00 99 1005.8
20260505071103 45 352 0.0 0.0 0.00 0.00 0.00 99 1005.8
20260505070600 45 352 0.0 0.0 0.00 0.00 0.00 99 1005.7
20260505070056 45 352 0.0 0.0 0.00 0.00 0.00 99 1005.8
20260505065552 45 352 0.0 0.0 0.00 0.00 0.00 99 1006.0
20260505065049 45 352 0.0 0.0 0.00 0.00 0.00 99 1005.8
20260505064545 45 352 0.0 0.0 0.00 0.00 0.00 99 1005.8
20260505064044 45 352 0.0 0.0 0.00 0.00 0.00 99 1005.9
20260505063541 45 352 0.0 0.0 0.00 0.00 0.00 99 1006.0
20260505063037 45 352 0.0 0.0 0.00 0.00 0.00 99 1006.0
20260505062533 45 352 0.0 0.0 0.00 0.00 0.00 99 1006.1
20260505062031 45 352 0.0 0.0 0.00 0.00 0.00 99 1005.9
20260505061528 45 352 0.0 0.0 0.00 0.00 0.00 99 1006.2
20260505061026 45 352 0.0 0.0 0.00 0.00 0.00 99 1006.2
20260505060523 45 352 0.0 0.0 0.00 0.00 0.00 98 1006.1
20260505060020 45 352 0.0 0.0 0.00 0.00 0.00 98 1006.0
20260505055515 46 352 0.0 0.0 0.00 0.00 0.00 98 1005.9
20260505055012 45 352 0.0 0.0 0.00 0.00 0.00 98 1006.3
20260505054509 45 352 0.0 0.0 0.00 0.00 0.00 98 1006.0
20260505054008 46 352 0.0 0.0 0.00 0.00 0.00 98 1006.1
20260505053504 46 352 0.0 0.0 0.00 0.00 0.00 98 1006.0
20260505053000 46 352 0.0 0.0 0.00 0.00 0.00 98 1005.9
20260505052458 46 352 0.0 0.0 0.00 0.00 0.00 98 1006.1
20260505051955 46 352 0.0 0.0 0.00 0.00 0.00 98 1006.0
20260505051452 46 352 0.0 0.0 0.00 0.00 0.00 98 1005.8
20260505050950 46 352 0.0 0.0 0.00 0.00 0.00 97 1006.1
20260505050448 46 352 0.0 0.0 0.00 0.00 0.00 97 1005.9
20260505041416 47 352 0.0 0.0 0.00 0.00 0.00 96 1006.1
20260505040913 48 352 0.0 0.0 0.00 0.00 0.00 96 1006.3
20260505040411 48 352 0.0 0.0 0.00 0.00 0.00 96 1006.4
20260505035907 48 352 0.0 0.0 0.00 0.00 0.00 96 1006.4
20260505035403 48 352 0.0 0.0 0.00 0.00 0.00 96 1006.2
20260505034900 48 352 0.0 0.0 0.00 0.00 0.00 95 1006.3
20260505034357 48 352 0.0 0.0 0.00 0.00 0.00 95 1006.2
20260505033854 48 352 0.0 0.0 0.00 0.00 0.00 95 1006.1
20260505033350 48 352 0.0 0.0 0.00 0.00 0.00 95 1006.4
20260505032849 48 352 0.0 0.0 0.00 0.00 0.00 94 1006.4
20260505032345 48 352 0.0 0.0 0.00 0.00 0.00 94 1006.5
20260505031842 48 352 0.0 0.0 0.00 0.00 0.00 94 1006.2
20260505031339 49 352 0.0 0.0 0.00 0.00 0.00 93 1006.3
20260505030836 49 352 0.0 0.0 0.00 0.00 0.00 94 1006.1
20260505030332 49 352 0.0 0.0 0.00 0.00 0.00 93 1006.3
20260505025827 49 352 0.0 0.0 0.00 0.00 0.00 93 1006.5
20260505025325 50 352 0.0 0.0 0.00 0.00 0.00 92 1006.4
20260505024824 50 352 0.0 0.0 0.00 0.00 0.00 92 1006.4
20260505024321 50 352 0.0 0.0 0.00 0.00 0.00 92 1006.5
20260505023818 50 351 0.0 0.0 0.00 0.00 0.00 92 1006.6
20260505023315 50 351 0.0 0.0 0.00 0.00 0.00 92 1006.6
20260505022812 51 351 0.0 0.0 0.00 0.00 0.00 92 1006.7
20260505022309 51 351 0.0 0.0 0.00 0.00 0.00 91 1006.8
20260505021806 51 351 0.0 0.0 0.00 0.00 0.00 89 1006.5
20260505021303 52 351 0.0 0.0 0.00 0.00 0.00 88 1006.6
20260505020759 53 351 0.0 0.0 0.00 0.00 0.00 87 1006.7
20260505020254 54 351 0.0 0.0 0.00 0.00 0.00 86 1006.7
20260505015752 53 352 0.0 0.0 0.00 0.00 0.00 87 1006.4
20260505015248 54 351 0.0 0.0 0.00 0.00 0.00 86 1006.6
20260505014746 55 351 0.0 0.0 0.00 0.00 0.00 85 1006.5
20260505014243 55 352 0.0 0.0 0.00 0.00 0.00 84 1006.4
20260505013739 55 351 0.0 0.0 0.00 0.00 0.00 84 1006.3
20260505013237 55 351 0.0 0.0 0.00 0.00 0.00 83 1006.2
20260505012734 55 351 0.0 0.0 0.00 0.00 0.00 83 1006.3
20260505012232 56 351 0.0 0.0 0.00 0.00 0.00 83 1006.3
20260505011727 57 351 0.0 0.0 0.00 0.00 0.00 83 1006.1
20260505011225 57 351 0.0 0.0 0.00 0.00 0.00 80 1006.2
20260505010720 58 351 0.0 0.0 0.00 0.00 0.00 78 1006.1
20260505010217 59 351 0.0 0.0 0.00 0.00 0.00 76 1005.9
20260505005713 59 351 0.0 0.0 0.00 0.00 0.00 75 1005.7
20260505005210 60 351 0.0 0.0 0.00 0.00 0.00 73 1005.8
20260505004707 61 351 0.0 0.0 0.00 0.00 0.00 72 1005.7
20260505004204 62 351 0.0 0.0 0.00 0.00 0.00 70 1005.5
20260505003701 62 351 0.0 0.0 0.00 0.00 0.00 67 1005.7
20260505003159 64 359 0.0 0.0 0.00 0.00 0.00 67 1005.6
20260505002655 65 353 0.0 0.0 0.00 0.00 0.00 64 1005.4
20260505002153 65 1 0.0 0.0 0.00 0.00 0.00 58 1005.5
20260505001649 66 349 0.0 0.0 0.00 0.00 0.00 55 1005.4
20260505001147 66 4 0.0 0.0 0.00 0.00 0.00 56 1005.6
20260505000644 66 357 0.0 0.0 0.00 0.00 0.00 56 1005.3
20260505000142 67 66 1.7 1.7 0.00 0.00 0.00 52 1005.3
20260504235638 67 3 0.0 0.0 0.00 0.00 0.00 57 1005.5
20260504235134 68 357 0.0 0.0 0.00 0.00 0.00 56 1005.1
20260504234632 69 344 0.0 0.9 0.00 0.00 0.00 56 1005.1
20260504234129 68 359 0.0 0.0 0.00 0.00 0.00 61 1005.3
20260504233625 69 352 0.0 0.0 0.00 0.00 0.00 56 1005.1
20260504233121 69 11 0.0 0.0 0.00 0.00 0.00 58 1005.0
20260504232619 69 3 0.0 0.0 0.00 0.00 0.00 51 1005.2
20260504232116 69 356 0.0 0.0 0.00 0.00 0.00 53 1005.1
20260504231612 70 336 0.0 0.9 0.00 0.00 0.00 56 1005.0
20260504231108 71 321 0.9 1.7 0.00 0.00 0.00 49 1005.1
20260504230604 71 359 0.0 0.0 0.00 0.00 0.00 49 1004.9
20260504230104 71 307 1.7 2.6 0.00 0.00 0.00 45 1005.0
20260504225601 72 280 0.9 1.7 0.00 0.00 0.00 44 1005.3
20260504225057 72 352 1.7 1.7 0.00 0.00 0.00 46 1004.9
20260504224554 72 12 0.0 0.9 0.00 0.00 0.00 44 1005.0
20260504224051 72 300 0.0 0.9 0.00 0.00 0.00 44 1004.9
20260504223548 73 354 0.0 0.0 0.00 0.00 0.00 44 1005.1
20260504223044 73 1 0.0 0.0 0.00 0.00 0.00 45 1005.1
20260504222541 73 353 0.0 0.0 0.00 0.00 0.00 43 1004.8
20260504222038 73 358 0.9 0.9 0.00 0.00 0.00 41 1004.8
20260504221535 73 348 0.0 0.0 0.00 0.00 0.00 43 1004.8
20260504221032 74 351 1.7 1.7 0.00 0.00 0.00 41 1004.8
20260504220529 74 342 0.0 0.9 0.00 0.00 0.00 44 1004.8
20260504220026 74 358 0.0 0.9 0.00 0.00 0.00 43 1004.8
20260504215522 74 330 0.0 0.0 0.00 0.00 0.00 42 1004.8
20260504215020 75 211 3.5 5.2 0.00 0.00 0.00 39 1004.4
20260504214516 76 305 1.7 2.6 0.00 0.00 0.00 40 1004.7
20260504214012 76 282 0.9 1.7 0.00 0.00 0.00 38 1004.7
20260504213508 76 310 1.7 2.6 0.00 0.00 0.00 38 1004.4
20260504213006 76 340 0.0 0.0 0.00 0.00 0.00 39 1004.4
20260504212501 77 328 1.7 2.6 0.00 0.00 0.00 37 1004.5
20260504211959 77 303 0.9 0.9 0.00 0.00 0.00 37 1004.1
20260504211455 76 322 0.0 0.0 0.00 0.00 0.00 40 1004.7
20260504210953 76 335 3.5 5.2 0.00 0.00 0.00 36 1004.3
20260504210450 76 316 0.0 0.9 0.00 0.00 0.00 38 1004.7
20260504205947 76 308 0.9 1.7 0.00 0.00 0.00 38 1004.3
20260504205444 75 81 1.7 3.5 0.00 0.00 0.00 37 1004.3
20260504204942 76 6 0.0 0.9 0.00 0.00 0.00 39 1004.3
20260504204440 77 300 0.9 1.7 0.00 0.00 0.00 37 1004.2
20260504203939 77 315 0.9 0.9 0.00 0.00 0.00 36 1004.3
20260504203436 76 339 0.0 0.0 0.00 0.00 0.00 38 1004.5
20260504202932 75 314 3.5 3.5 0.00 0.00 0.00 37 1004.4
20260504202429 75 359 0.0 0.9 0.00 0.00 0.00 37 1004.7
20260504201926 75 341 0.9 0.9 0.00 0.00 0.00 36 1004.5
20260504201423 74 342 1.7 2.6 0.00 0.00 0.00 38 1004.5
20260504200921 75 329 1.7 2.6 0.00 0.00 0.00 39 1004.7
20260504200417 77 288 1.7 1.7 0.00 0.00 0.00 35 1004.7
20260504195914 75 209 1.7 2.6 0.00 0.00 0.00 37 1004.8
20260504195409 76 337 0.9 0.9 0.00 0.00 0.00 37 1004.9
20260504194907 77 311 1.7 1.7 0.00 0.00 0.00 36 1005.1
20260504194402 76 2 0.9 1.7 0.00 0.00 0.00 35 1005.1
20260504193858 74 359 2.6 2.6 0.00 0.00 0.00 38 1005.2
20260504193356 74 4 0.0 0.0 0.00 0.00 0.00 37 1005.3
20260504192855 74 280 3.5 3.5 0.00 0.00 0.00 37 1005.5